User: anonymous   Login
Location: Unspecified
(0.0000°N, 0.0000°E)
Time: 12:39:23
(UTC+00:00)
Language:

BIROS - Orbit

View from above orbital plane
View from above orbital plane
View from above satellite
View from above satellite

Ground track
Ground track

The orbit data is extracted from the following two-line orbital elements,

1 41604U 16040F   22276.55324984  .00007139  00000-0  28776-3 0  9998
2 41604  97.2006 316.8822 0013235 108.6825 251.5852 15.25044741348933
Epoch (UTC): 03 October 2022 13:16:40
Eccentricity: 0.0013235
inclination: 97.2006°
perigee height: 481 km
apogee height: 500 km
right ascension of ascending node: 316.8822°
argument of perigee: 108.6825°
revolutions per day: 15.25044741
mean anomaly at epoch: 251.5852°
orbit number at epoch: 34893

The dashed part of the orbit path shows where the satellite is in the earth's shadow,  

DLR